Wetterdaten: Montag, 23.05.2016
Datum Zeit Auen-Temp. Temp gefhlt Luftfeuchte Luftdruck Regen Wind Richtung Richtung Sonnenschein Taupunkt Windben
23.05.2016 00:00 18,6 C 15,3 C 49 % 1012,6 hPa 0,0 mm 3,6 km/h (1 Bft) W-SW 247 0 min 7,7 C 3,9 km/h (1 Bft)
23.05.2016 00:05 18,6 C 15,2 C 49 % 1012,6 hPa 0,0 mm 3,0 km/h (1 Bft) S 180 0 min 7,7 C 4,2 km/h (1 Bft)
23.05.2016 00:10 18,6 C 14,9 C 49 % 1013,0 hPa 0,0 mm 2,7 km/h (1 Bft) O-NO 67 0 min 7,7 C 12,8 km/h (3 Bft)
23.05.2016 00:15 18,6 C 14,9 C 49 % 1013,0 hPa 0,0 mm 3,6 km/h (1 Bft) SW 225 0 min 7,7 C 4,8 km/h (1 Bft)
23.05.2016 00:20 18,6 C 14,7 C 49 % 1013,0 hPa 0,0 mm 3,3 km/h (1 Bft) W-NW 292 0 min 7,7 C 13,1 km/h (3 Bft)
23.05.2016 00:25 18,6 C 14,7 C 49 % 1013,0 hPa 0,0 mm 4,2 km/h (1 Bft) W 270 0 min 7,7 C 6,3 km/h (2 Bft)
23.05.2016 00:30 18,6 C 14,6 C 49 % 1012,9 hPa 0,0 mm 6,3 km/h (2 Bft) W 270 0 min 7,7 C 0,0 km/h (0 Bft)
23.05.2016 00:35 18,6 C 14,4 C 49 % 1012,9 hPa 0,0 mm 4,2 km/h (1 Bft) W 270 0 min 7,7 C 0,0 km/h (0 Bft)
23.05.2016 00:40 18,6 C 14,1 C 49 % 1012,9 hPa 0,0 mm 0,3 km/h (0 Bft) W-SW 247 0 min 7,7 C 0,0 km/h (0 Bft)
23.05.2016 00:45 18,6 C 14,0 C 49 % 1012,9 hPa 0,0 mm 0,0 km/h (0 Bft) S 180 0 min 7,7 C 0,0 km/h (0 Bft)
23.05.2016 00:50 18,6 C 13,9 C 49 % 1013,2 hPa 0,0 mm 0,3 km/h (0 Bft) W 270 0 min 7,7 C 7,5 km/h (2 Bft)
23.05.2016 00:55 18,6 C 13,8 C 49 % 1013,2 hPa 0,0 mm 0,9 km/h (0 Bft) W-NW 292 0 min 7,7 C 0,0 km/h (0 Bft)
23.05.2016 01:00 18,6 C 13,7 C 49 % 1013,2 hPa 0,0 mm 1,2 km/h (1 Bft) SW 225 0 min 7,7 C 0,0 km/h (0 Bft)
23.05.2016 01:05 18,6 C 13,3 C 49 % 1013,2 hPa 0,0 mm 0,6 km/h (0 Bft) SW 225 0 min 7,7 C 0,0 km/h (0 Bft)
23.05.2016 01:10 18,6 C 13,0 C 49 % 1012,9 hPa 0,0 mm 0,3 km/h (0 Bft) S 180 0 min 7,7 C 0,0 km/h (0 Bft)
23.05.2016 01:15 18,6 C 13,0 C 49 % 1012,9 hPa 0,0 mm 0,3 km/h (0 Bft) SW 225 0 min 7,7 C 0,0 km/h (0 Bft)
23.05.2016 01:20 18,6 C 12,9 C 49 % 1012,9 hPa 0,0 mm 0,0 km/h (0 Bft) W-SW 247 0 min 7,7 C 0,0 km/h (0 Bft)
23.05.2016 01:25 18,6 C 12,8 C 49 % 1012,9 hPa 0,0 mm 0,0 km/h (0 Bft) S-SO 157 0 min 7,7 C 0,0 km/h (0 Bft)
23.05.2016 01:30 18,6 C 12,9 C 49 % 1013,2 hPa 0,0 mm 0,0 km/h (0 Bft) SO 135 0 min 7,7 C 0,0 km/h (0 Bft)
23.05.2016 01:35 18,6 C 13,1 C 49 % 1013,2 hPa 0,0 mm 0,3 km/h (0 Bft) SW 225 0 min 7,7 C 0,0 km/h (0 Bft)
23.05.2016 01:40 18,6 C 13,3 C 49 % 1013,2 hPa 0,0 mm 0,6 km/h (0 Bft) NW 315 0 min 7,7 C 0,0 km/h (0 Bft)
23.05.2016 01:45 18,6 C 13,3 C 49 % 1013,2 hPa 0,0 mm 0,3 km/h (0 Bft) W-NW 292 0 min 7,7 C 0,0 km/h (0 Bft)
23.05.2016 01:50 18,6 C 13,4 C 49 % 1013,1 hPa 0,0 mm 0,0 km/h (0 Bft) SW 225 0 min 7,7 C 0,0 km/h (0 Bft)
23.05.2016 01:55 18,6 C 13,5 C 49 % 1013,1 hPa 0,0 mm 0,0 km/h (0 Bft) W-SW 247 0 min 7,7 C 0,0 km/h (0 Bft)
23.05.2016 02:00 18,6 C 13,5 C 49 % 1013,1 hPa 0,0 mm 0,6 km/h (0 Bft) W-SW 247 0 min 7,7 C 0,0 km/h (0 Bft)
23.05.2016 02:05 18,6 C 13,5 C 49 % 1013,1 hPa 0,0 mm 0,6 km/h (0 Bft) W-NW 292 0 min 7,7 C 0,0 km/h (0 Bft)
23.05.2016 02:10 18,6 C 13,5 C 49 % 1012,6 hPa 0,0 mm 0,3 km/h (0 Bft) NW 315 0 min 7,7 C 0,0 km/h (0 Bft)
23.05.2016 02:15 18,6 C 13,4 C 49 % 1012,6 hPa 0,0 mm 0,3 km/h (0 Bft) N-NW 337 0 min 7,7 C 0,0 km/h (0 Bft)
23.05.2016 02:20 18,6 C 13,3 C 49 % 1012,6 hPa 0,0 mm 0,0 km/h (0 Bft) NW 315 0 min 7,7 C 0,0 km/h (0 Bft)
23.05.2016 02:25 18,6 C 13,3 C 49 % 1012,6 hPa 0,0 mm 0,0 km/h (0 Bft) N-NW 337 0 min 7,7 C 0,0 km/h (0 Bft)
23.05.2016 02:30 18,6 C 13,1 C 49 % 1012,6 hPa 0,0 mm 0,0 km/h (0 Bft) N-NO 22 0 min 7,7 C 0,0 km/h (0 Bft)
23.05.2016 02:33 0,0 C 13,2 C 0 % 1012,6 hPa 0,0 mm 0,0 km/h (0 Bft) N-NW 337 0 min -60,0 C 0,0 km/h (0 Bft)
23.05.2016 02:34 0,0 C 13,2 C 0 % 1012,6 hPa 0,0 mm 0,0 km/h (0 Bft) N-NW 337 0 min -60,0 C 0,0 km/h (0 Bft)
23.05.2016 02:35 0,0 C 13,2 C 0 % 1012,6 hPa 0,0 mm 0,0 km/h (0 Bft) N-NW 337 0 min -60,0 C 0,0 km/h (0 Bft)
23.05.2016 02:40 0,0 C 13,1 C 0 % 1012,6 hPa 0,0 mm 0,0 km/h (0 Bft) W 270 0 min -60,0 C 0,0 km/h (0 Bft)
23.05.2016 02:45 0,0 C 13,0 C 0 % 1012,6 hPa 0,0 mm 0,0 km/h (0 Bft) W-SW 247 0 min -60,0 C 0,0 km/h (0 Bft)
23.05.2016 02:50 0,0 C 12,9 C 0 % 1012,8 hPa 0,0 mm 0,0 km/h (0 Bft) W-NW 292 0 min -60,0 C 0,0 km/h (0 Bft)
23.05.2016 02:55 0,0 C 12,8 C 0 % 1012,8 hPa 0,0 mm 0,0 km/h (0 Bft) N-NO 22 0 min -60,0 C 0,0 km/h (0 Bft)
23.05.2016 03:00 0,0 C 12,8 C 0 % 1012,8 hPa 0,0 mm 0,0 km/h (0 Bft) W-NW 292 0 min -60,0 C 0,0 km/h (0 Bft)
23.05.2016 03:05 0,0 C 12,8 C 0 % 1012,8 hPa 0,0 mm 0,0 km/h (0 Bft) NW 315 0 min -60,0 C 0,0 km/h (0 Bft)
23.05.2016 03:10 0,0 C 12,7 C 0 % 1012,8 hPa 0,0 mm 2,7 km/h (1 Bft) W 270 0 min -60,0 C 20,3 km/h (4 Bft)
23.05.2016 03:15 0,0 C 12,6 C 0 % 1012,8 hPa 0,0 mm 6,0 km/h (2 Bft) NW 315 0 min -60,0 C 9,2 km/h (2 Bft)
23.05.2016 03:20 0,0 C 12,6 C 0 % 1012,8 hPa 0,0 mm 9,2 km/h (2 Bft) W 270 0 min -60,0 C 8,3 km/h (2 Bft)
23.05.2016 03:25 0,0 C 12,5 C 0 % 1012,8 hPa 0,0 mm 8,0 km/h (2 Bft) NW 315 0 min -60,0 C 0,0 km/h (0 Bft)
23.05.2016 03:30 0,0 C 12,4 C 0 % 1012,7 hPa 0,0 mm 5,4 km/h (1 Bft) N 360 0 min -60,0 C 6,9 km/h (2 Bft)
23.05.2016 03:35 0,0 C 12,3 C 0 % 1012,7 hPa 0,0 mm 3,3 km/h (1 Bft) N-NW 337 0 min -60,0 C 0,0 km/h (0 Bft)
23.05.2016 03:40 0,0 C 12,3 C 0 % 1012,7 hPa 0,0 mm 3,6 km/h (1 Bft) W-NW 292 0 min -60,0 C 6,6 km/h (2 Bft)
23.05.2016 03:45 0,0 C 12,2 C 0 % 1012,7 hPa 0,0 mm 2,7 km/h (1 Bft) NO 45 0 min -60,0 C 0,0 km/h (0 Bft)
23.05.2016 03:50 0,0 C 12,2 C 0 % 1012,6 hPa 0,0 mm 1,2 km/h (1 Bft) N-NW 337 0 min -60,0 C 4,5 km/h (1 Bft)
23.05.2016 03:55 0,0 C 12,1 C 0 % 1012,6 hPa 0,0 mm 1,2 km/h (1 Bft) NW 315 0 min -60,0 C 0,0 km/h (0 Bft)
23.05.2016 04:00 0,0 C 12,1 C 0 % 1012,6 hPa 0,0 mm 3,0 km/h (1 Bft) W-SW 247 0 min -60,0 C 4,2 km/h (1 Bft)
23.05.2016 04:05 0,0 C 12,0 C 0 % 1012,6 hPa 0,0 mm 3,0 km/h (1 Bft) N-NW 337 0 min -60,0 C 0,0 km/h (0 Bft)
23.05.2016 04:10 0,0 C 12,0 C 0 % 1012,4 hPa 0,0 mm 2,7 km/h (1 Bft) W-NW 292 0 min -60,0 C 4,2 km/h (1 Bft)
23.05.2016 04:15 0,0 C 11,9 C 0 % 1012,4 hPa 0,0 mm 2,1 km/h (1 Bft) W-NW 292 0 min -60,0 C 0,0 km/h (0 Bft)
23.05.2016 04:20 0,0 C 11,9 C 0 % 1012,4 hPa 0,0 mm 1,2 km/h (1 Bft) N-NW 337 0 min -60,0 C 0,0 km/h (0 Bft)
23.05.2016 04:25 0,0 C 11,8 C 0 % 1012,4 hPa 0,0 mm 0,6 km/h (0 Bft) W-NW 292 0 min -60,0 C 0,0 km/h (0 Bft)
23.05.2016 04:30 0,0 C 11,9 C 0 % 1012,1 hPa 0,0 mm 0,3 km/h (0 Bft) NO 45 0 min -60,0 C 0,0 km/h (0 Bft)
23.05.2016 04:35 0,0 C 11,8 C 0 % 1012,1 hPa 0,0 mm 1,5 km/h (1 Bft) N-NO 22 0 min -60,0 C 8,9 km/h (2 Bft)
23.05.2016 04:40 0,0 C 11,7 C 0 % 1012,1 hPa 0,0 mm 1,8 km/h (1 Bft) NO 45 0 min -60,0 C 0,0 km/h (0 Bft)
23.05.2016 04:45 0,0 C 11,7 C 0 % 1012,1 hPa 0,0 mm 0,9 km/h (0 Bft) N-NO 22 0 min -60,0 C 0,0 km/h (0 Bft)
23.05.2016 04:50 0,0 C 11,7 C 0 % 1011,9 hPa 0,0 mm 0,0 km/h (0 Bft) N-NO 22 0 min -60,0 C 0,0 km/h (0 Bft)
23.05.2016 04:55 0,0 C 11,6 C 0 % 1011,9 hPa 0,0 mm 0,0 km/h (0 Bft) N 360 0 min -60,0 C 0,0 km/h (0 Bft)
23.05.2016 05:00 0,0 C 11,5 C 0 % 1011,9 hPa 0,0 mm 0,0 km/h (0 Bft) N-NW 337 0 min -60,0 C 0,0 km/h (0 Bft)
23.05.2016 05:05 0,0 C 11,5 C 0 % 1011,9 hPa 0,0 mm 0,0 km/h (0 Bft) NO 45 0 min -60,0 C 0,0 km/h (0 Bft)
23.05.2016 05:10 0,0 C 11,5 C 0 % 1011,9 hPa 0,0 mm 0,0 km/h (0 Bft) W 270 0 min -60,0 C 0,0 km/h (0 Bft)
23.05.2016 05:15 0,0 C 11,5 C 0 % 1011,9 hPa 0,0 mm 0,0 km/h (0 Bft) O-NO 67 0 min -60,0 C 0,0 km/h (0 Bft)
23.05.2016 05:20 0,0 C 11,4 C 0 % 1011,9 hPa 0,0 mm 0,0 km/h (0 Bft) N-NO 22 0 min -60,0 C 0,0 km/h (0 Bft)
23.05.2016 05:25 0,0 C 11,5 C 0 % 1011,9 hPa 0,0 mm 0,3 km/h (0 Bft) N-NO 22 0 min -60,0 C 0,0 km/h (0 Bft)
23.05.2016 05:30 0,0 C 11,5 C 0 % 1011,8 hPa 0,0 mm 0,3 km/h (0 Bft) O-NO 67 0 min -60,0 C 0,0 km/h (0 Bft)
23.05.2016 05:33 0,0 C 11,4 C 0 % 1011,8 hPa 0,0 mm 0,0 km/h (0 Bft) N-NO 22 0 min -60,0 C 0,0 km/h (0 Bft)
23.05.2016 05:35 0,0 C 11,4 C 0 % 1011,8 hPa 0,0 mm 0,0 km/h (0 Bft) N-NO 22 0 min -60,0 C 0,0 km/h (0 Bft)
23.05.2016 05:40 0,0 C 11,4 C 0 % 1011,8 hPa 0,0 mm 0,0 km/h (0 Bft) O 90 0 min -60,0 C 0,0 km/h (0 Bft)
23.05.2016 05:45 0,0 C 11,3 C 0 % 1011,8 hPa 0,0 mm 0,0 km/h (0 Bft) O-NO 67 0 min -60,0 C 0,0 km/h (0 Bft)
23.05.2016 05:50 0,0 C 11,4 C 0 % 1011,8 hPa 0,0 mm 0,0 km/h (0 Bft) NW 315 0 min -60,0 C 0,0 km/h (0 Bft)
23.05.2016 05:55 0,0 C 11,4 C 0 % 1011,8 hPa 0,0 mm 0,0 km/h (0 Bft) N-NO 22 0 min -60,0 C 0,0 km/h (0 Bft)
23.05.2016 06:00 0,0 C 11,3 C 0 % 1011,8 hPa 0,0 mm 0,0 km/h (0 Bft) O-SO 112 0 min -60,0 C 0,0 km/h (0 Bft)
23.05.2016 06:05 0,0 C 11,3 C 0 % 1011,8 hPa 0,0 mm 0,0 km/h (0 Bft) SO 135 0 min -60,0 C 0,0 km/h (0 Bft)
23.05.2016 06:10 0,0 C 11,3 C 0 % 1011,7 hPa 0,0 mm 0,0 km/h (0 Bft) NO 45 0 min -60,0 C 0,0 km/h (0 Bft)
23.05.2016 06:15 0,0 C 11,4 C 0 % 1011,7 hPa 0,0 mm 0,0 km/h (0 Bft) O 90 0 min -60,0 C 0,0 km/h (0 Bft)
23.05.2016 06:20 0,0 C 11,4 C 0 % 1011,7 hPa 0,0 mm 0,0 km/h (0 Bft) N-NO 22 0 min -60,0 C 0,0 km/h (0 Bft)
23.05.2016 06:25 0,0 C 11,4 C 0 % 1011,7 hPa 0,0 mm 0,0 km/h (0 Bft) N-NO 22 0 min -60,0 C 0,0 km/h (0 Bft)
23.05.2016 06:30 0,0 C 11,3 C 0 % 1011,6 hPa 0,0 mm 0,0 km/h (0 Bft) NO 45 0 min -60,0 C 0,0 km/h (0 Bft)
23.05.2016 06:35 0,0 C 11,3 C 0 % 1011,6 hPa 0,0 mm 0,0 km/h (0 Bft) N-NO 22 0 min -60,0 C 0,0 km/h (0 Bft)
23.05.2016 06:40 0,0 C 11,3 C 0 % 1011,6 hPa 0,0 mm 0,0 km/h (0 Bft) N-NO 22 0 min -60,0 C 0,0 km/h (0 Bft)
23.05.2016 06:45 0,0 C 11,3 C 0 % 1011,6 hPa 0,0 mm 0,0 km/h (0 Bft) O 90 0 min -60,0 C 0,0 km/h (0 Bft)
23.05.2016 06:50 0,0 C 11,4 C 0 % 1011,5 hPa 0,0 mm 0,0 km/h (0 Bft) SO 135 0 min -60,0 C 0,0 km/h (0 Bft)
23.05.2016 06:55 0,0 C 11,4 C 0 % 1011,5 hPa 0,0 mm 0,0 km/h (0 Bft) O-SO 112 0 min -60,0 C 0,0 km/h (0 Bft)
23.05.2016 07:00 0,0 C 11,4 C 0 % 1011,5 hPa 0,0 mm 0,0 km/h (0 Bft) N-NO 22 0 min -60,0 C 0,0 km/h (0 Bft)
23.05.2016 07:05 0,0 C 11,4 C 0 % 1011,5 hPa 0,0 mm 0,0 km/h (0 Bft) NW 315 0 min -60,0 C 0,0 km/h (0 Bft)
23.05.2016 07:10 0,0 C 11,5 C 0 % 1011,4 hPa 0,0 mm 0,0 km/h (0 Bft) NW 315 0 min -60,0 C 0,0 km/h (0 Bft)
23.05.2016 07:15 0,0 C 11,6 C 0 % 1011,4 hPa 0,0 mm 0,0 km/h (0 Bft) NO 45 0 min -60,0 C 0,0 km/h (0 Bft)
23.05.2016 07:20 0,0 C 11,6 C 0 % 1011,4 hPa 0,0 mm 0,0 km/h (0 Bft) O-NO 67 0 min -60,0 C 0,0 km/h (0 Bft)
23.05.2016 07:25 0,0 C 11,5 C 0 % 1011,4 hPa 0,0 mm 0,0 km/h (0 Bft) N-NO 22 0 min -60,0 C 0,0 km/h (0 Bft)
23.05.2016 07:30 0,0 C 11,5 C 0 % 1011,6 hPa 0,0 mm 0,0 km/h (0 Bft) N-NO 22 0 min -60,0 C 0,0 km/h (0 Bft)
23.05.2016 07:35 0,0 C 11,6 C 0 % 1011,6 hPa 0,0 mm 0,0 km/h (0 Bft) N-NO 22 0 min -60,0 C 0,0 km/h (0 Bft)
23.05.2016 07:40 0,0 C 11,7 C 0 % 1011,6 hPa 0,0 mm 0,0 km/h (0 Bft) N 360 0 min -60,0 C 0,0 km/h (0 Bft)
23.05.2016 07:45 0,0 C 11,7 C 0 % 1011,6 hPa 0,0 mm 0,0 km/h (0 Bft) N-NO 22 0 min -60,0 C 0,0 km/h (0 Bft)
23.05.2016 07:50 0,0 C 11,7 C 0 % 1011,5 hPa 0,0 mm 0,0 km/h (0 Bft) N 360 0 min -60,0 C 0,0 km/h (0 Bft)
23.05.2016 07:55 0,0 C 11,7 C 0 % 1011,5 hPa 0,0 mm 0,0 km/h (0 Bft) N 360 0 min -60,0 C 0,0 km/h (0 Bft)
23.05.2016 08:00 0,0 C 11,7 C 0 % 1011,5 hPa 0,0 mm 0,0 km/h (0 Bft) N-NO 22 0 min -60,0 C 0,0 km/h (0 Bft)
23.05.2016 08:05 0,0 C 11,6 C 0 % 1011,5 hPa 0,0 mm 0,0 km/h (0 Bft) N 360 0 min -60,0 C 0,0 km/h (0 Bft)
23.05.2016 08:10 0,0 C 11,7 C 0 % 1011,6 hPa 0,0 mm 0,0 km/h (0 Bft) W 270 0 min -60,0 C 0,0 km/h (0 Bft)
23.05.2016 08:15 0,0 C 11,6 C 0 % 1011,6 hPa 0,0 mm 0,3 km/h (0 Bft) SO 135 0 min -60,0 C 8,6 km/h (2 Bft)
23.05.2016 08:20 0,0 C 11,3 C 0 % 1011,6 hPa 0,0 mm 0,9 km/h (0 Bft) W 270 0 min -60,0 C 0,0 km/h (0 Bft)
23.05.2016 08:25 0,0 C 11,0 C 0 % 1011,6 hPa 0,0 mm 0,9 km/h (0 Bft) W 270 0 min -60,0 C 0,0 km/h (0 Bft)
23.05.2016 08:30 0,0 C 10,5 C 0 % 1011,7 hPa 0,0 mm 0,0 km/h (0 Bft) W-SW 247 0 min -60,0 C 0,0 km/h (0 Bft)
23.05.2016 08:33 0,0 C 10,2 C 0 % 1011,7 hPa 0,0 mm 0,9 km/h (0 Bft) N-NW 337 0 min -60,0 C 4,8 km/h (1 Bft)
23.05.2016 08:36 0,0 C 10,2 C 0 % 1011,7 hPa 0,0 mm 0,9 km/h (0 Bft) N-NW 337 0 min -60,0 C 4,8 km/h (1 Bft)
23.05.2016 08:40 10,5 C 10,0 C 73 % 1011,7 hPa 0,0 mm 0,9 km/h (0 Bft) W 270 0 min 5,9 C 0,0 km/h (0 Bft)
23.05.2016 08:45 10,3 C 9,8 C 74 % 1011,7 hPa 0,7 mm 1,2 km/h (1 Bft) W-NW 292 0 min 5,9 C 0,0 km/h (0 Bft)
23.05.2016 08:50 10,1 C 9,6 C 74 % 1011,5 hPa 0,0 mm 1,2 km/h (1 Bft) W-SW 247 0 min 5,7 C 4,2 km/h (1 Bft)
23.05.2016 08:55 10,0 C 9,6 C 74 % 1011,5 hPa 0,0 mm 0,6 km/h (0 Bft) SW 225 0 min 5,6 C 0,0 km/h (0 Bft)
23.05.2016 09:00 9,9 C 9,4 C 75 % 1011,5 hPa 0,0 mm 0,9 km/h (0 Bft) W-SW 247 0 min 5,7 C 0,0 km/h (0 Bft)
23.05.2016 09:05 9,8 C 9,4 C 76 % 1011,5 hPa 0,0 mm 0,6 km/h (0 Bft) W 270 0 min 5,8 C 0,0 km/h (0 Bft)
23.05.2016 09:10 9,7 C 9,3 C 76 % 1011,7 hPa 0,7 mm 0,3 km/h (0 Bft) W-SW 247 0 min 5,7 C 0,0 km/h (0 Bft)
23.05.2016 09:15 9,6 C 9,3 C 76 % 1011,7 hPa 0,0 mm 0,0 km/h (0 Bft) S 180 0 min 5,6 C 0,0 km/h (0 Bft)
23.05.2016 09:20 9,5 C 9,2 C 77 % 1011,7 hPa 0,0 mm 0,0 km/h (0 Bft) NW 315 0 min 5,7 C 0,0 km/h (0 Bft)
23.05.2016 09:25 9,4 C 9,1 C 77 % 1011,7 hPa 0,0 mm 1,2 km/h (1 Bft) SW 225 0 min 5,6 C 6,0 km/h (2 Bft)
23.05.2016 09:30 9,3 C 9,0 C 78 % 1011,8 hPa 0,7 mm 2,7 km/h (1 Bft) O 90 0 min 5,7 C 3,6 km/h (1 Bft)
23.05.2016 09:35 9,2 C 8,9 C 78 % 1011,8 hPa 0,0 mm 3,6 km/h (1 Bft) W 270 0 min 5,6 C 4,8 km/h (1 Bft)
23.05.2016 09:40 9,1 C 8,8 C 78 % 1011,8 hPa 0,0 mm 5,7 km/h (1 Bft) W 270 0 min 5,5 C 23,5 km/h (4 Bft)
23.05.2016 09:45 9,0 C 8,7 C 79 % 1011,8 hPa 0,0 mm 7,2 km/h (2 Bft) W-SW 247 0 min 5,6 C 7,2 km/h (2 Bft)
23.05.2016 09:50 8,9 C 8,6 C 79 % 1011,9 hPa 0,7 mm 7,2 km/h (2 Bft) NW 315 0 min 5,5 C 11,3 km/h (2 Bft)
23.05.2016 09:55 8,7 C 8,3 C 79 % 1011,9 hPa 0,0 mm 8,0 km/h (2 Bft) W-SW 247 0 min 5,3 C 11,0 km/h (2 Bft)
23.05.2016 10:00 8,2 C 7,8 C 79 % 1011,9 hPa 0,0 mm 8,6 km/h (2 Bft) S-SO 157 0 min 4,8 C 26,8 km/h (4 Bft)
23.05.2016 10:05 8,0 C 7,5 C 79 % 1011,9 hPa 0,0 mm 10,4 km/h (2 Bft) NW 315 0 min 4,6 C 12,8 km/h (3 Bft)
23.05.2016 10:10 7,8 C 7,3 C 80 % 1012,4 hPa 0,0 mm 10,4 km/h (2 Bft) S-SW 202 0 min 4,6 C 7,2 km/h (2 Bft)
23.05.2016 10:15 7,8 C 7,4 C 80 % 1012,4 hPa 0,0 mm 8,6 km/h (2 Bft) W-SW 247 0 min 4,6 C 8,0 km/h (2 Bft)
23.05.2016 10:20 7,5 C 7,1 C 80 % 1012,4 hPa 0,7 mm 8,9 km/h (2 Bft) W-NW 292 0 min 4,3 C 28,9 km/h (5 Bft)
23.05.2016 10:25 7,4 C 6,8 C 80 % 1012,4 hPa 0,0 mm 11,3 km/h (2 Bft) W-SW 247 0 min 4,2 C 17,9 km/h (3 Bft)
23.05.2016 10:30 7,2 C 6,5 C 80 % 1012,4 hPa 0,0 mm 12,5 km/h (3 Bft) SO 135 0 min 4,0 C 34,6 km/h (5 Bft)
23.05.2016 10:35 7,0 C 6,4 C 80 % 1012,4 hPa 0,0 mm 11,9 km/h (2 Bft) W 270 0 min 3,8 C 20,3 km/h (4 Bft)
23.05.2016 10:40 6,9 C 6,5 C 80 % 1012,4 hPa 0,0 mm 9,2 km/h (2 Bft) W-SW 247 0 min 3,7 C 4,8 km/h (1 Bft)
23.05.2016 10:45 6,8 C 6,4 C 80 % 1012,4 hPa 0,0 mm 8,9 km/h (2 Bft) W 270 0 min 3,6 C 11,3 km/h (2 Bft)
23.05.2016 10:50 6,6 C 6,1 C 80 % 1012,6 hPa 0,0 mm 11,0 km/h (2 Bft) N-NO 22 0 min 3,4 C 40,5 km/h (6 Bft)
23.05.2016 10:55 6,5 C 5,8 C 80 % 1012,6 hPa 0,0 mm 12,2 km/h (2 Bft) W 270 0 min 3,3 C 20,6 km/h (4 Bft)
23.05.2016 11:00 6,3 C 5,5 C 80 % 1012,6 hPa 0,0 mm 13,4 km/h (3 Bft) S 180 0 min 3,1 C 42,3 km/h (6 Bft)
23.05.2016 11:05 6,1 C 5,4 C 80 % 1012,6 hPa 0,0 mm 16,4 km/h (3 Bft) O-SO 112 0 min 2,9 C 18,2 km/h (3 Bft)
23.05.2016 11:10 5,9 C 5,2 C 81 % 1012,5 hPa 0,0 mm 16,4 km/h (3 Bft) NO 45 0 min 2,9 C 14,6 km/h (3 Bft)
23.05.2016 11:15 5,8 C 5,1 C 81 % 1012,5 hPa 0,0 mm 12,5 km/h (3 Bft) W 270 0 min 2,8 C 12,2 km/h (2 Bft)
23.05.2016 11:20 5,7 C 5,1 C 81 % 1012,5 hPa 0,0 mm 12,5 km/h (3 Bft) W-NW 292 0 min 2,7 C 12,8 km/h (3 Bft)
23.05.2016 11:25 5,8 C 5,1 C 81 % 1012,5 hPa 0,7 mm 13,4 km/h (3 Bft) W-SW 247 0 min 2,8 C 30,7 km/h (5 Bft)
23.05.2016 11:30 5,8 C 5,4 C 81 % 1012,9 hPa 0,0 mm 10,7 km/h (2 Bft) W-NW 292 0 min 2,8 C 8,3 km/h (2 Bft)
23.05.2016 11:35 5,9 C 5,4 C 81 % 1012,9 hPa 0,0 mm 10,7 km/h (2 Bft) W 270 0 min 2,9 C 14,6 km/h (3 Bft)
23.05.2016 11:37 5,9 C 5,4 C 81 % 1012,9 hPa 0,0 mm 10,7 km/h (2 Bft) W 270 0 min 2,9 C 14,6 km/h (3 Bft)
23.05.2016 11:40 5,8 C 5,4 C 82 % 1012,9 hPa 0,0 mm 12,2 km/h (2 Bft) S-SW 202 0 min 3,0 C 33,1 km/h (5 Bft)
23.05.2016 11:45 5,8 C 5,2 C 82 % 1012,9 hPa 0,0 mm 12,8 km/h (3 Bft) W 270 0 min 3,0 C 18,5 km/h (3 Bft)
23.05.2016 11:50 5,6 C 5,1 C 82 % 1013,1 hPa 0,0 mm 12,2 km/h (2 Bft) S 180 0 min 2,8 C 10,1 km/h (2 Bft)
23.05.2016 11:55 5,7 C 5,3 C 82 % 1013,1 hPa 0,0 mm 11,0 km/h (2 Bft) SW 225 0 min 2,9 C 11,9 km/h (2 Bft)
23.05.2016 12:00 5,8 C 5,6 C 82 % 1013,1 hPa 0,0 mm 10,1 km/h (2 Bft) SW 225 0 min 3,0 C 25,3 km/h (4 Bft)
23.05.2016 12:05 5,8 C 5,7 C 82 % 1013,1 hPa 0,0 mm 10,1 km/h (2 Bft) W-SW 247 0 min 3,0 C 14,9 km/h (3 Bft)
23.05.2016 12:10 5,7 C 5,5 C 82 % 1013,2 hPa 0,0 mm 11,9 km/h (2 Bft) W-NW 292 0 min 2,9 C 21,8 km/h (4 Bft)
23.05.2016 12:15 5,7 C 5,4 C 82 % 1013,2 hPa 0,7 mm 11,6 km/h (2 Bft) W-SW 247 0 min 2,9 C 12,2 km/h (2 Bft)
23.05.2016 12:20 5,6 C 5,4 C 82 % 1013,2 hPa 0,0 mm 11,0 km/h (2 Bft) W-SW 247 0 min 2,8 C 14,0 km/h (3 Bft)
23.05.2016 12:25 5,6 C 5,5 C 82 % 1013,2 hPa 0,0 mm 10,4 km/h (2 Bft) SW 225 0 min 2,8 C 15,2 km/h (3 Bft)
23.05.2016 12:30 5,6 C 5,4 C 82 % 1013,3 hPa 0,0 mm 11,0 km/h (2 Bft) W-SW 247 0 min 2,8 C 20,0 km/h (4 Bft)
23.05.2016 12:35 5,6 C 5,5 C 82 % 1013,3 hPa 0,0 mm 9,5 km/h (2 Bft) S 180 0 min 2,8 C 7,7 km/h (2 Bft)
23.05.2016 12:40 5,4 C 5,3 C 82 % 1013,3 hPa 0,0 mm 8,0 km/h (2 Bft) S 180 0 min 2,6 C 4,8 km/h (1 Bft)
23.05.2016 12:45 5,4 C 5,2 C 82 % 1013,3 hPa 0,0 mm 7,7 km/h (2 Bft) SW 225 0 min 2,6 C 6,0 km/h (2 Bft)
23.05.2016 12:50 5,5 C 5,6 C 82 % 1013,6 hPa 0,0 mm 4,8 km/h (1 Bft) NW 315 0 min 2,7 C 0,0 km/h (0 Bft)
23.05.2016 12:55 5,4 C 5,5 C 82 % 1013,6 hPa 0,0 mm 5,7 km/h (1 Bft) W 270 0 min 2,6 C 10,7 km/h (2 Bft)
23.05.2016 13:00 5,3 C 5,1 C 82 % 1013,6 hPa 0,0 mm 8,3 km/h (2 Bft) W 270 0 min 2,5 C 13,7 km/h (3 Bft)
23.05.2016 13:05 5,2 C 5,0 C 82 % 1013,6 hPa 0,7 mm 7,7 km/h (2 Bft) S 180 0 min 2,4 C 6,3 km/h (2 Bft)
23.05.2016 13:10 5,2 C 5,2 C 82 % 1013,8 hPa 0,0 mm 5,1 km/h (1 Bft) S-SW 202 0 min 2,4 C 8,3 km/h (2 Bft)
23.05.2016 13:15 5,2 C 5,1 C 82 % 1013,8 hPa 0,0 mm 4,5 km/h (1 Bft) W 270 0 min 2,4 C 6,3 km/h (2 Bft)
23.05.2016 13:20 5,1 C 4,8 C 82 % 1013,8 hPa 0,0 mm 8,0 km/h (2 Bft) NW 315 0 min 2,3 C 22,7 km/h (4 Bft)
23.05.2016 13:25 5,0 C 4,8 C 82 % 1013,8 hPa 0,0 mm 7,7 km/h (2 Bft) W 270 0 min 2,2 C 22,7 km/h (4 Bft)
23.05.2016 13:30 5,0 C 4,8 C 82 % 1013,5 hPa 0,0 mm 8,0 km/h (2 Bft) S 180 0 min 2,2 C 10,1 km/h (2 Bft)
23.05.2016 13:35 5,1 C 4,8 C 82 % 1013,5 hPa 0,0 mm 8,9 km/h (2 Bft) W-SW 247 0 min 2,3 C 19,4 km/h (3 Bft)
23.05.2016 13:40 5,2 C 5,1 C 82 % 1013,5 hPa 0,0 mm 6,6 km/h (2 Bft) SW 225 0 min 2,4 C 14,6 km/h (3 Bft)
23.05.2016 13:45 5,2 C 5,2 C 82 % 1013,5 hPa 0,0 mm 6,3 km/h (2 Bft) N-NO 22 0 min 2,4 C 6,6 km/h (2 Bft)
23.05.2016 13:50 5,3 C 5,4 C 82 % 1013,7 hPa 0,7 mm 5,7 km/h (1 Bft) S 180 0 min 2,5 C 11,3 km/h (2 Bft)
23.05.2016 13:55 5,3 C 5,5 C 83 % 1013,7 hPa 0,0 mm 5,4 km/h (1 Bft) N 360 0 min 2,7 C 0,0 km/h (0 Bft)
23.05.2016 14:00 5,5 C 5,7 C 83 % 1013,7 hPa 0,0 mm 4,5 km/h (1 Bft) S-SO 157 0 min 2,8 C 0,0 km/h (0 Bft)
23.05.2016 14:05 5,6 C 5,8 C 83 % 1013,7 hPa 0,0 mm 2,7 km/h (1 Bft) S 180 0 min 2,9 C 6,0 km/h (2 Bft)
23.05.2016 14:10 5,5 C 5,7 C 83 % 1013,6 hPa 0,0 mm 3,9 km/h (1 Bft) NW 315 0 min 2,8 C 13,7 km/h (3 Bft)
23.05.2016 14:15 5,5 C 5,5 C 83 % 1013,6 hPa 0,0 mm 6,9 km/h (2 Bft) W-NW 292 0 min 2,8 C 10,1 km/h (2 Bft)
23.05.2016 14:20 5,5 C 5,3 C 83 % 1013,6 hPa 0,7 mm 8,3 km/h (2 Bft) S 180 0 min 2,8 C 7,2 km/h (2 Bft)
23.05.2016 14:25 5,5 C 5,4 C 83 % 1013,6 hPa 0,0 mm 7,7 km/h (2 Bft) W-SW 247 0 min 2,8 C 8,3 km/h (2 Bft)
23.05.2016 14:30 5,6 C 5,5 C 83 % 1013,6 hPa 0,0 mm 7,5 km/h (2 Bft) NW 315 0 min 2,9 C 10,1 km/h (2 Bft)
23.05.2016 14:35 5,7 C 5,5 C 83 % 1013,6 hPa 0,0 mm 8,3 km/h (2 Bft) S-SW 202 0 min 3,0 C 25,6 km/h (4 Bft)
23.05.2016 14:38 5,7 C 5,6 C 83 % 1013,6 hPa 0,0 mm 9,2 km/h (2 Bft) W-SW 247 0 min 3,0 C 9,8 km/h (2 Bft)
23.05.2016 14:40 5,7 C 5,6 C 83 % 1013,6 hPa 0,0 mm 9,2 km/h (2 Bft) W-SW 247 0 min 3,0 C 9,8 km/h (2 Bft)
23.05.2016 14:45 5,7 C 5,6 C 83 % 1013,6 hPa 0,0 mm 8,3 km/h (2 Bft) NW 315 0 min 3,0 C 11,0 km/h (2 Bft)
23.05.2016 14:50 5,7 C 5,6 C 83 % 1014,0 hPa 0,0 mm 7,5 km/h (2 Bft) NW 315 0 min 3,0 C 4,2 km/h (1 Bft)
23.05.2016 14:55 5,7 C 5,6 C 83 % 1014,0 hPa 0,0 mm 7,2 km/h (2 Bft) NW 315 0 min 3,0 C 14,6 km/h (3 Bft)
23.05.2016 15:00 5,7 C 5,5 C 82 % 1014,0 hPa 0,7 mm 8,3 km/h (2 Bft) S-SO 157 0 min 2,9 C 5,4 km/h (1 Bft)
23.05.2016 15:05 5,8 C 5,7 C 82 % 1014,0 hPa 0,0 mm 7,5 km/h (2 Bft) W 270 0 min 3,0 C 10,1 km/h (2 Bft)
23.05.2016 15:10 5,9 C 6,1 C 82 % 1013,8 hPa 0,0 mm 3,9 km/h (1 Bft) NW 315 0 min 3,1 C 0,0 km/h (0 Bft)
23.05.2016 15:15 6,0 C 6,2 C 81 % 1013,8 hPa 0,0 mm 4,8 km/h (1 Bft) W 270 0 min 3,0 C 11,3 km/h (2 Bft)
23.05.2016 15:20 5,8 C 5,9 C 82 % 1013,8 hPa 0,0 mm 5,7 km/h (1 Bft) W-SW 247 0 min 3,0 C 11,3 km/h (2 Bft)
23.05.2016 15:25 5,8 C 6,0 C 82 % 1013,8 hPa 0,0 mm 5,7 km/h (1 Bft) S 180 0 min 3,0 C 6,6 km/h (2 Bft)
23.05.2016 15:30 5,8 C 5,9 C 82 % 1014,2 hPa 0,0 mm 5,4 km/h (1 Bft) W-SW 247 0 min 3,0 C 10,1 km/h (2 Bft)
23.05.2016 15:35 5,8 C 5,8 C 82 % 1014,2 hPa 0,7 mm 4,8 km/h (1 Bft) O 90 0 min 3,0 C 8,3 km/h (2 Bft)
23.05.2016 15:40 5,7 C 5,7 C 82 % 1014,2 hPa 0,0 mm 4,5 km/h (1 Bft) W 270 0 min 2,9 C 6,9 km/h (2 Bft)
23.05.2016 15:45 5,7 C 5,6 C 82 % 1014,2 hPa 0,0 mm 6,0 km/h (2 Bft) SO 135 0 min 2,9 C 11,3 km/h (2 Bft)
23.05.2016 15:50 5,7 C 5,6 C 82 % 1013,8 hPa 0,0 mm 6,0 km/h (2 Bft) S 180 0 min 2,9 C 6,9 km/h (2 Bft)
23.05.2016 15:55 5,7 C 5,7 C 82 % 1013,8 hPa 0,0 mm 5,7 km/h (1 Bft) NW 315 0 min 2,9 C 8,6 km/h (2 Bft)
23.05.2016 16:00 5,7 C 5,7 C 82 % 1013,8 hPa 0,0 mm 6,9 km/h (2 Bft) W-SW 247 0 min 2,9 C 14,0 km/h (3 Bft)
23.05.2016 16:05 5,7 C 5,7 C 82 % 1013,8 hPa 0,0 mm 6,9 km/h (2 Bft) W-SW 247 0 min 2,9 C 5,7 km/h (1 Bft)
23.05.2016 16:10 5,7 C 5,6 C 83 % 1013,9 hPa 0,0 mm 7,5 km/h (2 Bft) N-NW 337 0 min 3,0 C 13,1 km/h (3 Bft)
23.05.2016 16:15 5,7 C 5,5 C 83 % 1013,9 hPa 0,0 mm 7,2 km/h (2 Bft) SW 225 0 min 3,0 C 4,2 km/h (1 Bft)
23.05.2016 16:20 5,7 C 5,7 C 83 % 1013,9 hPa 0,0 mm 6,3 km/h (2 Bft) W-SW 247 0 min 3,0 C 5,1 km/h (1 Bft)
23.05.2016 16:25 5,8 C 5,8 C 83 % 1013,9 hPa 0,7 mm 5,1 km/h (1 Bft) S 180 0 min 3,1 C 7,7 km/h (2 Bft)
23.05.2016 16:30 5,7 C 5,7 C 83 % 1013,9 hPa 0,0 mm 5,7 km/h (1 Bft) SW 225 0 min 3,0 C 4,5 km/h (1 Bft)
23.05.2016 16:35 5,7 C 5,8 C 83 % 1013,9 hPa 0,0 mm 5,4 km/h (1 Bft) S-SW 202 0 min 3,0 C 26,8 km/h (4 Bft)
23.05.2016 16:40 5,7 C 5,8 C 83 % 1013,9 hPa 0,0 mm 3,9 km/h (1 Bft) W-NW 292 0 min 3,0 C 0,0 km/h (0 Bft)
23.05.2016 16:45 5,7 C 5,6 C 83 % 1013,9 hPa 0,0 mm 6,0 km/h (2 Bft) W 270 0 min 3,0 C 3,6 km/h (1 Bft)
23.05.2016 16:50 5,7 C 5,6 C 83 % 1013,8 hPa 0,0 mm 6,6 km/h (2 Bft) S 180 0 min 3,0 C 10,1 km/h (2 Bft)
23.05.2016 16:55 5,7 C 5,8 C 83 % 1013,8 hPa 0,0 mm 5,1 km/h (1 Bft) SW 225 0 min 3,0 C 8,0 km/h (2 Bft)
23.05.2016 17:00 5,6 C 5,7 C 83 % 1013,8 hPa 0,0 mm 5,4 km/h (1 Bft) S 180 0 min 2,9 C 8,0 km/h (2 Bft)
23.05.2016 17:05 5,6 C 5,6 C 83 % 1013,8 hPa 0,0 mm 6,0 km/h (2 Bft) W 270 0 min 2,9 C 9,2 km/h (2 Bft)
23.05.2016 17:10 5,6 C 5,6 C 83 % 1013,8 hPa 0,0 mm 6,0 km/h (2 Bft) W-SW 247 0 min 2,9 C 13,7 km/h (3 Bft)
23.05.2016 17:15 5,6 C 5,6 C 83 % 1013,8 hPa 0,0 mm 6,0 km/h (2 Bft) S-SW 202 0 min 2,9 C 7,7 km/h (2 Bft)
23.05.2016 17:20 5,6 C 5,6 C 83 % 1013,8 hPa 0,0 mm 5,7 km/h (1 Bft) S-SW 202 0 min 2,9 C 10,4 km/h (2 Bft)
23.05.2016 17:25 5,6 C 5,6 C 83 % 1013,8 hPa 0,0 mm 5,7 km/h (1 Bft) SW 225 0 min 2,9 C 12,2 km/h (2 Bft)
23.05.2016 17:30 5,4 C 5,3 C 83 % 1013,7 hPa 0,0 mm 6,9 km/h (2 Bft) NW 315 0 min 2,7 C 5,4 km/h (1 Bft)
23.05.2016 17:35 5,4 C 5,3 C 83 % 1013,7 hPa 0,0 mm 6,9 km/h (2 Bft) W-SW 247 0 min 2,7 C 20,9 km/h (4 Bft)
23.05.2016 17:38 5,4 C 5,3 C 83 % 1013,7 hPa 0,7 mm 6,3 km/h (2 Bft) S-SO 157 0 min 2,7 C 6,6 km/h (2 Bft)
23.05.2016 17:39 5,4 C 5,3 C 83 % 1013,7 hPa 0,0 mm 6,3 km/h (2 Bft) S-SO 157 0 min 2,7 C 6,6 km/h (2 Bft)
23.05.2016 17:40 5,4 C 5,3 C 83 % 1013,7 hPa 0,0 mm 6,3 km/h (2 Bft) S-SO 157 0 min 2,7 C 6,6 km/h (2 Bft)
23.05.2016 17:45 5,4 C 5,2 C 83 % 1013,7 hPa 0,0 mm 7,5 km/h (2 Bft) N-NO 22 0 min 2,7 C 8,0 km/h (2 Bft)
23.05.2016 17:50 5,4 C 5,3 C 83 % 1013,3 hPa 0,0 mm 5,1 km/h (1 Bft) S-SW 202 0 min 2,7 C 5,1 km/h (1 Bft)
23.05.2016 17:55 5,4 C 5,4 C 83 % 1013,3 hPa 0,0 mm 3,9 km/h (1 Bft) S 180 0 min 2,7 C 0,0 km/h (0 Bft)
23.05.2016 18:00 5,4 C 5,4 C 83 % 1013,3 hPa 0,0 mm 3,9 km/h (1 Bft) W 270 0 min 2,7 C 8,3 km/h (2 Bft)
23.05.2016 18:05 5,3 C 5,2 C 83 % 1013,3 hPa 0,0 mm 5,4 km/h (1 Bft) W-SW 247 0 min 2,7 C 7,2 km/h (2 Bft)
23.05.2016 18:10 5,3 C 5,0 C 83 % 1013,2 hPa 0,0 mm 7,2 km/h (2 Bft) S 180 0 min 2,7 C 7,5 km/h (2 Bft)
23.05.2016 18:15 5,3 C 4,9 C 83 % 1013,2 hPa 0,0 mm 7,5 km/h (2 Bft) W-SW 247 0 min 2,7 C 10,4 km/h (2 Bft)
23.05.2016 18:20 5,3 C 5,2 C 83 % 1013,2 hPa 0,0 mm 5,7 km/h (1 Bft) W-SW 247 0 min 2,7 C 9,2 km/h (2 Bft)
23.05.2016 18:25 5,3 C 5,2 C 83 % 1013,2 hPa 0,0 mm 4,2 km/h (1 Bft) S 180 0 min 2,7 C 6,3 km/h (2 Bft)
23.05.2016 18:30 5,3 C 5,1 C 83 % 1013,5 hPa 0,0 mm 3,3 km/h (1 Bft) O-NO 67 0 min 2,7 C 5,1 km/h (1 Bft)
23.05.2016 18:35 5,3 C 5,1 C 83 % 1013,5 hPa 0,0 mm 3,0 km/h (1 Bft) NW 315 0 min 2,7 C 5,4 km/h (1 Bft)
23.05.2016 18:40 5,2 C 5,0 C 83 % 1013,5 hPa 0,0 mm 4,5 km/h (1 Bft) W 270 0 min 2,6 C 0,0 km/h (0 Bft)
23.05.2016 18:45 5,2 C 4,9 C 83 % 1013,5 hPa 0,0 mm 6,0 km/h (2 Bft) NW 315 0 min 2,6 C 10,1 km/h (2 Bft)
23.05.2016 18:50 5,2 C 5,0 C 83 % 1013,3 hPa 0,0 mm 3,6 km/h (1 Bft) S-SW 202 0 min 2,6 C 0,0 km/h (0 Bft)
23.05.2016 18:55 5,2 C 5,0 C 83 % 1013,3 hPa 0,7 mm 3,9 km/h (1 Bft) W-SW 247 0 min 2,6 C 6,0 km/h (2 Bft)
23.05.2016 19:00 5,2 C 5,0 C 83 % 1013,3 hPa 0,0 mm 5,1 km/h (1 Bft) SW 225 0 min 2,6 C 0,0 km/h (0 Bft)
23.05.2016 19:05 5,2 C 5,0 C 83 % 1013,3 hPa 0,0 mm 5,1 km/h (1 Bft) S-SW 202 0 min 2,6 C 3,9 km/h (1 Bft)
23.05.2016 19:10 5,2 C 5,0 C 83 % 1013,6 hPa 0,0 mm 5,4 km/h (1 Bft) W 270 0 min 2,6 C 11,9 km/h (2 Bft)
23.05.2016 19:15 5,2 C 4,9 C 83 % 1013,6 hPa 0,0 mm 6,6 km/h (2 Bft) SW 225 0 min 2,6 C 0,0 km/h (0 Bft)
23.05.2016 19:20 5,2 C 5,0 C 83 % 1013,6 hPa 0,0 mm 4,5 km/h (1 Bft) W 270 0 min 2,6 C 0,0 km/h (0 Bft)
23.05.2016 19:25 5,2 C 5,0 C 83 % 1013,6 hPa 0,0 mm 3,6 km/h (1 Bft) W-SW 247 0 min 2,6 C 7,5 km/h (2 Bft)
23.05.2016 19:30 5,3 C 5,0 C 83 % 1013,4 hPa 0,0 mm 2,7 km/h (1 Bft) W-SW 247 0 min 2,7 C 11,0 km/h (2 Bft)
23.05.2016 19:35 5,2 C 5,0 C 83 % 1013,4 hPa 0,0 mm 2,7 km/h (1 Bft) N-NW 337 0 min 2,6 C 4,8 km/h (1 Bft)
23.05.2016 19:40 5,2 C 5,0 C 83 % 1013,4 hPa 0,0 mm 2,4 km/h (1 Bft) O-SO 112 0 min 2,6 C 0,0 km/h (0 Bft)
23.05.2016 19:45 5,2 C 5,0 C 83 % 1013,4 hPa 0,0 mm 1,5 km/h (1 Bft) S 180 0 min 2,6 C 7,7 km/h (2 Bft)
23.05.2016 19:50 5,2 C 5,0 C 83 % 1013,8 hPa 0,7 mm 3,3 km/h (1 Bft) W-SW 247 0 min 2,6 C 0,0 km/h (0 Bft)
23.05.2016 19:55 5,2 C 4,9 C 83 % 1013,8 hPa 0,0 mm 4,8 km/h (1 Bft) S 180 0 min 2,6 C 14,6 km/h (3 Bft)
23.05.2016 20:00 5,2 C 4,9 C 83 % 1013,8 hPa 0,0 mm 3,0 km/h (1 Bft) S 180 0 min 2,6 C 0,0 km/h (0 Bft)
23.05.2016 20:05 5,2 C 4,9 C 83 % 1013,8 hPa 0,0 mm 1,8 km/h (1 Bft) S-SW 202 0 min 2,6 C 0,0 km/h (0 Bft)
23.05.2016 20:10 5,1 C 4,8 C 83 % 1013,9 hPa 0,7 mm 3,0 km/h (1 Bft) S 180 0 min 2,5 C 10,7 km/h (2 Bft)
23.05.2016 20:15 5,1 C 4,8 C 83 % 1013,9 hPa 0,0 mm 5,7 km/h (1 Bft) SW 225 0 min 2,5 C 0,0 km/h (0 Bft)
23.05.2016 20:20 5,1 C 4,6 C 83 % 1013,9 hPa 0,0 mm 6,6 km/h (2 Bft) SO 135 0 min 2,5 C 7,2 km/h (2 Bft)
23.05.2016 20:25 5,1 C 4,8 C 83 % 1013,9 hPa 0,0 mm 4,5 km/h (1 Bft) W 270 0 min 2,5 C 3,0 km/h (1 Bft)
23.05.2016 20:30 5,0 C 4,7 C 83 % 1013,9 hPa 0,0 mm 3,6 km/h (1 Bft) SO 135 0 min 2,4 C 16,4 km/h (3 Bft)
23.05.2016 20:35 5,0 C 4,7 C 83 % 1013,9 hPa 0,0 mm 4,5 km/h (1 Bft) SW 225 0 min 2,4 C 13,7 km/h (3 Bft)
23.05.2016 20:38 5,0 C 4,5 C 84 % 1013,9 hPa 0,0 mm 7,2 km/h (2 Bft) SW 225 0 min 2,5 C 6,6 km/h (2 Bft)
23.05.2016 20:40 5,0 C 4,5 C 84 % 1013,9 hPa 0,0 mm 7,2 km/h (2 Bft) SW 225 0 min 2,5 C 6,6 km/h (2 Bft)
23.05.2016 20:45 4,9 C 4,5 C 84 % 1013,9 hPa 0,0 mm 6,6 km/h (2 Bft) S 180 0 min 2,4 C 15,5 km/h (3 Bft)
23.05.2016 20:50 4,9 C 4,5 C 84 % 1013,9 hPa 0,0 mm 4,5 km/h (1 Bft) NW 315 0 min 2,4 C 0,0 km/h (0 Bft)
23.05.2016 20:55 4,9 C 4,5 C 84 % 1013,9 hPa 0,0 mm 4,5 km/h (1 Bft) W-SW 247 0 min 2,4 C 6,3 km/h (2 Bft)
23.05.2016 21:00 4,9 C 4,5 C 84 % 1013,9 hPa 0,0 mm 4,5 km/h (1 Bft) S-SW 202 0 min 2,4 C 4,2 km/h (1 Bft)
23.05.2016 21:05 4,9 C 4,5 C 84 % 1013,9 hPa 0,0 mm 5,7 km/h (1 Bft) O 90 0 min 2,4 C 5,1 km/h (1 Bft)
23.05.2016 21:10 4,9 C 4,6 C 84 % 1013,7 hPa 0,0 mm 4,2 km/h (1 Bft) SW 225 0 min 2,4 C 0,0 km/h (0 Bft)
23.05.2016 21:15 4,9 C 4,6 C 84 % 1013,7 hPa 0,0 mm 2,7 km/h (1 Bft) W 270 0 min 2,4 C 7,7 km/h (2 Bft)
23.05.2016 21:20 4,9 C 4,6 C 84 % 1013,7 hPa 0,0 mm 3,9 km/h (1 Bft) N-NW 337 0 min 2,4 C 4,8 km/h (1 Bft)
23.05.2016 21:25 4,9 C 4,6 C 84 % 1013,7 hPa 0,0 mm 6,0 km/h (2 Bft) W-SW 247 0 min 2,4 C 8,0 km/h (2 Bft)
23.05.2016 21:30 5,0 C 4,6 C 84 % 1013,9 hPa 0,7 mm 4,2 km/h (1 Bft) SW 225 0 min 2,5 C 3,6 km/h (1 Bft)
23.05.2016 21:35 5,0 C 4,6 C 84 % 1013,9 hPa 0,0 mm 1,5 km/h (1 Bft) S 180 0 min 2,5 C 0,0 km/h (0 Bft)
23.05.2016 21:40 5,0 C 4,6 C 84 % 1013,9 hPa 0,0 mm 0,6 km/h (0 Bft) SW 225 0 min 2,5 C 0,0 km/h (0 Bft)
23.05.2016 21:45 4,9 C 4,6 C 84 % 1013,9 hPa 0,0 mm 1,2 km/h (1 Bft) SW 225 0 min 2,4 C 11,3 km/h (2 Bft)
23.05.2016 21:50 4,9 C 4,7 C 84 % 1013,9 hPa 0,0 mm 1,8 km/h (1 Bft) W-SW 247 0 min 2,4 C 0,0 km/h (0 Bft)
23.05.2016 21:55 5,0 C 4,7 C 84 % 1013,9 hPa 0,0 mm 2,4 km/h (1 Bft) SW 225 0 min 2,5 C 3,9 km/h (1 Bft)
23.05.2016 22:00 5,0 C 4,7 C 84 % 1013,9 hPa 0,7 mm 2,1 km/h (1 Bft) W 270 0 min 2,5 C 0,0 km/h (0 Bft)
23.05.2016 22:05 5,0 C 4,7 C 84 % 1013,9 hPa 0,0 mm 1,2 km/h (1 Bft) SW 225 0 min 2,5 C 0,0 km/h (0 Bft)
23.05.2016 22:10 5,0 C 4,7 C 84 % 1013,9 hPa 0,0 mm 2,7 km/h (1 Bft) NW 315 0 min 2,5 C 0,0 km/h (0 Bft)
23.05.2016 22:15 5,0 C 4,7 C 84 % 1013,9 hPa 0,0 mm 3,6 km/h (1 Bft) SW 225 0 min 2,5 C 0,0 km/h (0 Bft)
23.05.2016 22:20 5,0 C 4,7 C 84 % 1013,9 hPa 0,0 mm 3,6 km/h (1 Bft) SW 225 0 min 2,5 C 4,2 km/h (1 Bft)
23.05.2016 22:25 5,0 C 4,8 C 84 % 1013,9 hPa 0,0 mm 3,9 km/h (1 Bft) W-SW 247 0 min 2,5 C 0,0 km/h (0 Bft)
23.05.2016 22:30 5,1 C 4,8 C 84 % 1013,8 hPa 0,0 mm 2,7 km/h (1 Bft) SW 225 0 min 2,6 C 0,0 km/h (0 Bft)
23.05.2016 22:35 5,1 C 4,8 C 84 % 1013,8 hPa 0,0 mm 0,9 km/h (0 Bft) SO 135 0 min 2,6 C 0,0 km/h (0 Bft)
23.05.2016 22:40 5,0 C 4,8 C 84 % 1013,8 hPa 0,0 mm 1,2 km/h (1 Bft) S-SW 202 0 min 2,5 C 3,3 km/h (1 Bft)
23.05.2016 22:45 5,0 C 4,8 C 84 % 1013,8 hPa 0,0 mm 2,7 km/h (1 Bft) S 180 0 min 2,5 C 0,0 km/h (0 Bft)
23.05.2016 22:50 5,1 C 4,8 C 84 % 1013,6 hPa 0,7 mm 4,2 km/h (1 Bft) S-SW 202 0 min 2,6 C 8,6 km/h (2 Bft)
23.05.2016 22:55 5,1 C 4,8 C 84 % 1013,6 hPa 0,0 mm 3,9 km/h (1 Bft) W-SW 247 0 min 2,6 C 0,0 km/h (0 Bft)
23.05.2016 23:00 5,1 C 4,8 C 84 % 1013,6 hPa 0,0 mm 5,1 km/h (1 Bft) NO 45 0 min 2,6 C 6,0 km/h (2 Bft)
23.05.2016 23:05 5,1 C 4,8 C 84 % 1013,6 hPa 0,0 mm 5,1 km/h (1 Bft) NW 315 0 min 2,6 C 16,1 km/h (3 Bft)
23.05.2016 23:10 5,1 C 4,8 C 84 % 1013,6 hPa 0,0 mm 4,8 km/h (1 Bft) S 180 0 min 2,6 C 0,0 km/h (0 Bft)
23.05.2016 23:15 5,1 C 4,8 C 84 % 1013,6 hPa 0,0 mm 3,3 km/h (1 Bft) SW 225 0 min 2,6 C 0,0 km/h (0 Bft)
23.05.2016 23:20 5,1 C 4,9 C 84 % 1013,6 hPa 0,0 mm 3,6 km/h (1 Bft) S-SW 202 0 min 2,6 C 5,4 km/h (1 Bft)
23.05.2016 23:25 5,1 C 4,9 C 84 % 1013,6 hPa 0,0 mm 4,2 km/h (1 Bft) O-SO 112 0 min 2,6 C 0,0 km/h (0 Bft)
23.05.2016 23:30 5,1 C 4,9 C 85 % 1013,8 hPa 0,0 mm 4,8 km/h (1 Bft) W-SW 247 0 min 2,8 C 0,0 km/h (0 Bft)
23.05.2016 23:35 5,2 C 4,9 C 85 % 1013,8 hPa 0,0 mm 5,7 km/h (1 Bft) W-SW 247 0 min 2,9 C 7,2 km/h (2 Bft)
23.05.2016 23:38 5,2 C 4,9 C 85 % 1013,8 hPa 0,0 mm 3,3 km/h (1 Bft) W 270 0 min 2,9 C 0,0 km/h (0 Bft)
23.05.2016 23:41 5,2 C 4,9 C 85 % 1013,8 hPa 0,0 mm 3,3 km/h (1 Bft) W 270 0 min 2,9 C 0,0 km/h (0 Bft)
23.05.2016 23:45 5,2 C 4,9 C 85 % 1013,8 hPa 0,7 mm 2,7 km/h (1 Bft) S 180 0 min 2,9 C 7,7 km/h (2 Bft)
23.05.2016 23:50 5,2 C 4,9 C 85 % 1013,6 hPa 0,0 mm 4,8 km/h (1 Bft) W-SW 247 0 min 2,9 C 11,3 km/h (2 Bft)
23.05.2016 23:55 5,2 C 4,9 C 85 % 1013,6 hPa 0,0 mm 5,1 km/h (1 Bft) W-SW 247 0 min 2,9 C 3,0 km/h (1 Bft)
_ Min-Zeit 08:36 21:05 08:36 07:25 - 09:20 - - - 08:36 23:41
Minimum _ 0,0 C 4,5 C 0 % 1011,4 hPa - 0,0 km/h (0 Bft) - - - -60,0 C 0,0 km/h (0 Bft)
_ Max-Zeit 02:30 00:00 23:55 15:45 23:45 11:10 - - 23:55 02:30 11:00
Maximum _ 18,6 C 15,3 C 85 % 1014,2 hPa 0,7 mm 16,4 km/h
NO (3 Bft)
- - 0 min 7,7 C 42,3 km/h
S (6 Bft)
Durchschnitt _ 5,7 C 8,1 C 58 % 1013,0 hPa #14,4 mm 4,1 km/h (1 Bft) W-SW - #0 min. -12,5 C 6,0 km/h (2 Bft)